Hourly Weather Bolshoy Kameshek

Today, 25 July, Sunday

Time Temperature Precipitation Wind Pressure Humidity
00:00 +14°C° 0 mm 1 mps 755 mmHg 70%
01:00 +13°C° 0 mm 1 mps 755 mmHg 72%
02:00 +13°C° 0 mm 1 mps 755 mmHg 74%
03:00 +13°C° 0 mm 1 mps 755 mmHg 75%
04:00 +13°C° 0 mm 1 mps 755 mmHg 75%
05:00 +13°C° 0 mm 1 mps 755 mmHg 76%
06:00 +15°C° 0 mm 1 mps 756 mmHg 68%
07:00 +19°C° 0 mm 1 mps 756 mmHg 60%
08:00 +21°C° 0 mm 1 mps 756 mmHg 52%
09:00 +23°C° 0 mm 1 mps 756 mmHg 47%
10:00 +24°C° 0 mm 1 mps 756 mmHg 42%
11:00 +26°C° 0 mm 1 mps 756 mmHg 38%
12:00 +27°C° 0 mm 1 mps 756 mmHg 36%
13:00 +27°C° 0 mm 1 mps 756 mmHg 35%
14:00 +28°C° 0 mm 1 mps 756 mmHg 34%
15:00 +27°C° 0 mm 1 mps 756 mmHg 35%
16:00 +27°C° 0 mm 1 mps 755 mmHg 37%
17:00 +27°C° 0 mm 1 mps 755 mmHg 39%
18:00 +25°C° 0 mm 1 mps 756 mmHg 46%
19:00 +23°C° 0 mm 1 mps 756 mmHg 53%
20:00 +21°C° 0 mm 1 mps 756 mmHg 61%
21:00 +20°C° 0 mm 1 mps 756 mmHg 62%
22:00 +19°C° 0 mm 1 mps 756 mmHg 64%
23:00 +18°C° 0 mm 1 mps 757 mmHg 66%

Tomorrow, 26 July, Monday

Time Temperature Precipitation Wind Pressure Humidity
00:00 +18°C° 0 mm 1 mps 757 mmHg 67%
01:00 +16°C° 0 mm 1 mps 757 mmHg 69%
02:00 +16°C° 0 mm 1 mps 757 mmHg 70%
03:00 +16°C° 0 mm 1 mps 757 mmHg 71%
04:00 +16°C° 0 mm 1 mps 757 mmHg 71%
05:00 +16°C° 0 mm 1 mps 757 mmHg 72%
06:00 +17°C° 0 mm 0 mps 757 mmHg 65%
07:00 +20°C° 0 mm 0 mps 757 mmHg 57%
08:00 +22°C° 0 mm 0 mps 758 mmHg 50%
09:00 +25°C° 0 mm 1 mps 758 mmHg 45%
10:00 +27°C° 0 mm 1 mps 758 mmHg 41%
11:00 +28°C° 0 mm 1 mps 758 mmHg 36%
12:00 +29°C° 0 mm 1 mps 758 mmHg 35%
13:00 +30°C° 0 mm 1 mps 757 mmHg 34%
14:00 +30°C° 0 mm 1 mps 757 mmHg 32%
15:00 +30°C° 0 mm 1 mps 757 mmHg 33%
16:00 +30°C° 0 mm 1 mps 757 mmHg 35%
17:00 +29°C° 0 mm 1 mps 757 mmHg 36%
18:00 +27°C° 0 mm 1 mps 757 mmHg 44%
19:00 +25°C° 0 mm 1 mps 757 mmHg 53%
20:00 +21°C° 0 mm 2 mps 757 mmHg 62%
21:00 +21°C° 0 mm 2 mps 757 mmHg 64%
22:00 +20°C° 0 mm 2 mps 757 mmHg 66%
23:00 +19°C° 0 mm 2 mps 757 mmHg 68%

Day after tomorrow, 27 July, Tuesday

Time Temperature Precipitation Wind Pressure Humidity
00:00 +18°C° 0 mm 2 mps 757 mmHg 70%
01:00 +18°C° 0 mm 2 mps 757 mmHg 72%
02:00 +18°C° 0 mm 2 mps 757 mmHg 74%
03:00 +19°C° 0 mm 1 mps 757 mmHg 75%
04:00 +18°C° 0 mm 1 mps 757 mmHg 76%
05:00 +18°C° 0 mm 1 mps 757 mmHg 78%
06:00 +20°C° 0 mm 2 mps 757 mmHg 71%
07:00 +23°C° 0 mm 2 mps 757 mmHg 64%
08:00 +25°C° 0 mm 2 mps 757 mmHg 56%
09:00 +27°C° 0 mm 2 mps 757 mmHg 51%
10:00 +28°C° 0 mm 2 mps 757 mmHg 46%
11:00 +30°C° 0 mm 2 mps 757 mmHg 41%
12:00 +30°C° 0 mm 2 mps 756 mmHg 39%
13:00 +31°C° 0 mm 2 mps 756 mmHg 37%
14:00 +31°C° 0 mm 2 mps 755 mmHg 35%
15:00 +30°C° 0 mm 3 mps 755 mmHg 38%
16:00 +30°C° 0 mm 3 mps 755 mmHg 41%
17:00 +29°C° 0 mm 3 mps 755 mmHg 44%
18:00 +27°C° 0 mm 2 mps 755 mmHg 49%
19:00 +25°C° 0 mm 2 mps 754 mmHg 54%
20:00 +24°C° 0 mm 2 mps 754 mmHg 59%
21:00 +23°C° 0 mm 2 mps 754 mmHg 63%
22:00 +21°C° 0 mm 2 mps 754 mmHg 66%
23:00 +20°C° 0 mm 2 mps 754 mmHg 69%

28 July, Wednesday

Time Temperature Precipitation Wind Pressure Humidity
00:00 +20°C° 0 mm 2 mps 754 mmHg 71%
01:00 +19°C° 0 mm 2 mps 753 mmHg 73%
02:00 +19°C° 0 mm 2 mps 753 mmHg 75%
03:00 +19°C° 0 mm 2 mps 753 mmHg 77%
04:00 +18°C° 0 mm 2 mps 752 mmHg 79%
05:00 +18°C° 0 mm 2 mps 752 mmHg 81%
06:00 +19°C° 0 mm 2 mps 752 mmHg 76%
07:00 +21°C° 0 mm 2 mps 752 mmHg 72%
08:00 +23°C° 0 mm 2 mps 751 mmHg 67%
09:00 +22°C° 0.1 mm 3 mps 751 mmHg 69%
10:00 +22°C° 0.1 mm 3 mps 751 mmHg 72%
11:00 +22°C° 0.1 mm 3 mps 751 mmHg 74%
12:00 +22°C° 1.5 mm 3 mps 751 mmHg 80%
13:00 +21°C° 1.5 mm 3 mps 750 mmHg 85%
14:00 +20°C° 1.5 mm 3 mps 750 mmHg 91%
15:00 +20°C° 2.3 mm 3 mps 750 mmHg 93%
16:00 +20°C° 2.3 mm 3 mps 749 mmHg 95%
17:00 +19°C° 2.3 mm 3 mps 749 mmHg 96%
18:00 +19°C° 0.4 mm 2 mps 749 mmHg 97%
19:00 +19°C° 0.4 mm 2 mps 748 mmHg 97%
20:00 +19°C° 0.4 mm 2 mps 748 mmHg 97%
21:00 +19°C° 0 mm 1 mps 748 mmHg 98%
22:00 +19°C° 0 mm 1 mps 748 mmHg 98%
23:00 +17°C° 0 mm 0 mps 747 mmHg 98%

29 July, Thursday

Time Temperature Precipitation Wind Pressure Humidity
00:00 +17°C° 0 mm 0 mps 747 mmHg 98%
01:00 +19°C° 0 mm 1 mps 747 mmHg 98%
02:00 +19°C° 0 mm 1 mps 747 mmHg 98%
03:00 +19°C° 0 mm 1 mps 747 mmHg 98%
04:00 +19°C° 0 mm 1 mps 747 mmHg 98%
05:00 +19°C° 0 mm 1 mps 747 mmHg 98%
06:00 +19°C° 0 mm 2 mps 747 mmHg 95%
07:00 +20°C° 0 mm 2 mps 747 mmHg 91%
08:00 +21°C° 0 mm 3 mps 747 mmHg 88%
09:00 +22°C° 0.2 mm 3 mps 747 mmHg 77%
10:00 +25°C° 0.2 mm 3 mps 747 mmHg 67%
11:00 +26°C° 0.2 mm 4 mps 747 mmHg 56%
12:00 +26°C° 0.1 mm 4 mps 747 mmHg 59%
13:00 +25°C° 0.1 mm 5 mps 747 mmHg 62%
14:00 +25°C° 0.1 mm 5 mps 747 mmHg 65%
15:00 +23°C° 0.2 mm 4 mps 747 mmHg 70%
16:00 +22°C° 0.2 mm 4 mps 747 mmHg 75%
17:00 +21°C° 0.2 mm 3 mps 747 mmHg 80%
18:00 +20°C° 0.1 mm 3 mps 747 mmHg 83%
19:00 +20°C° 0.1 mm 3 mps 747 mmHg 86%
20:00 +19°C° 0.1 mm 2 mps 747 mmHg 89%
21:00 +19°C° 0 mm 2 mps 747 mmHg 90%
22:00 +18°C° 0 mm 2 mps 747 mmHg 91%
23:00 +17°C° 0 mm 2 mps 747 mmHg 93%

30 July, Friday

Time Temperature Precipitation Wind Pressure Humidity
00:00 +16°C° 0 mm 2 mps 747 mmHg 93%
01:00 +16°C° 0 mm 2 mps 747 mmHg 93%
02:00 +15°C° 0 mm 2 mps 747 mmHg 92%
03:00 +15°C° 0 mm 2 mps 747 mmHg 93%
04:00 +15°C° 0 mm 2 mps 748 mmHg 93%
05:00 +15°C° 0 mm 2 mps 748 mmHg 94%
06:00 +16°C° 0 mm 3 mps 748 mmHg 86%
07:00 +18°C° 0 mm 4 mps 748 mmHg 79%
08:00 +20°C° 0 mm 4 mps 748 mmHg 71%
09:00 +21°C° 0 mm 4 mps 748 mmHg 62%
10:00 +23°C° 0 mm 4 mps 748 mmHg 53%
11:00 +25°C° 0 mm 5 mps 748 mmHg 45%
12:00 +26°C° 0 mm 5 mps 748 mmHg 42%
13:00 +27°C° 0 mm 5 mps 748 mmHg 39%
14:00 +28°C° 0 mm 5 mps 747 mmHg 36%
15:00 +27°C° 0 mm 4 mps 747 mmHg 40%
16:00 +26°C° 0 mm 3 mps 747 mmHg 45%
17:00 +26°C° 0 mm 3 mps 747 mmHg 49%
18:00 +24°C° 0 mm 3 mps 747 mmHg 53%
19:00 +23°C° 0 mm 2 mps 747 mmHg 57%
20:00 +20°C° 0 mm 2 mps 747 mmHg 62%
21:00 +19°C° 0 mm 2 mps 747 mmHg 63%
22:00 +18°C° 0 mm 2 mps 747 mmHg 65%
23:00 +17°C° 0 mm 2 mps 747 mmHg 67%
Show more

We Need Your Consent

Meteoprog and our Service Providers may store and access personal data such as cookies, device identifiers or other similar technologies on your device and process such data to personalise content and ads, as well as provide social media features and to analyse the traffic.

  • Store and/or access information on your device

    Cookies, device identifiers or other information can be stored or accessed on your device for the purposes indicated above.

  • Personalised ads and content, ad and content measurement, audience insights, and products development

    Ads and content can be personalised based on a profile. More data can be added to better personalise ads and content. Ad and content performance can be measured. Insights about the audience who saw the ads and content can be derived. Such data can be used to develop or improve user’s experience, systems and software.

By clicking ‘I Agree’ you will allow the use of indicated cookies, device identifiers, web beacons or other similar technologies. Your settings can be changed in the browser on your device.

For certain purposes, legitimate interests may be relied on, rather than consent. You can read more about this in our Privacy and Cookie Policy.